Location: Prague
(50.0830°N, 14.4670°E)
Time: 18:31:13
(UTC+01:00)

NUDT-PHONESAT - Visible Passes

Search period start: 03 December 2021 00:00
Search period end: 13 December 2021 00:00
Orbit: 474 x 487 km, 97.4° (Epoch: 03 December)

Date Brightness Start Highest point End Pass type
(mag) Time Alt. Az. Time Alt. Az. Time Alt. Az.
03 Dec ? 06:29:15 10° NNE 06:32:34 32° E 06:35:50 10° SSE visible
03 Dec ? 17:09:06 10° SE 17:12:10 27° ENE 17:15:16 10° N visible
03 Dec ? 18:42:25 10° SSW 18:45:30 26° W 18:48:37 10° NW visible
04 Dec ? 06:04:18 10° NE 06:06:49 18° E 06:09:19 10° SE visible
04 Dec ? 16:44:35 10° E 16:46:49 16° ENE 16:49:03 10° NNE visible
04 Dec ? 18:16:19 10° S 18:19:49 51° W 18:23:22 10° NNW visible
05 Dec ? 17:50:37 10° SSE 17:54:13 80° ENE 17:57:51 10° N visible
06 Dec ? 06:45:44 10° NNE 06:49:15 50° E 06:52:45 10° S visible
06 Dec ? 17:25:19 10° SE 17:28:41 40° ENE 17:32:06 10° N visible
06 Dec ? 18:59:43 10° SW 19:02:14 18° W 19:04:47 10° NW visible
07 Dec ? 06:20:28 10° NE 06:23:32 26° E 06:26:35 10° SSE visible
07 Dec ? 17:00:24 10° ESE 17:03:14 22° ENE 17:06:06 10° NNE visible
07 Dec ? 18:33:10 10° SSW 18:36:27 33° W 18:39:46 10° NNW visible
08 Dec ? 05:55:42 10° NE 05:57:42 14° E 05:59:42 10° SE visible
08 Dec ? 16:36:09 10° E 16:37:52 13° ENE 16:39:35 10° NNE visible
08 Dec ? 18:07:10 10° S 18:10:44 66° WSW 18:14:21 10° NNW visible
09 Dec ? 07:02:09 10° NNE 07:05:46 80° ESE 07:09:21 10° S visible
09 Dec ? 17:41:34 10° SSE 17:45:07 62° ENE 17:48:42 10° N visible
09 Dec ? 19:17:23 10° WSW 19:18:52 12° W 19:20:21 10° WNW visible
10 Dec ? 06:36:39 10° NNE 06:40:04 39° E 06:43:26 10° SSE visible
10 Dec ? 17:16:20 10° SE 17:19:34 32° ENE 17:22:48 10° N visible
10 Dec ? 18:50:06 10° SSW 18:52:59 22° W 18:55:52 10° NW visible
11 Dec ? 06:11:28 10° NE 06:14:15 21° E 06:17:00 10° SE visible
11 Dec ? 16:51:33 10° ESE 16:54:04 18° ENE 16:56:36 10° NNE visible
11 Dec ? 18:23:44 10° S 18:27:09 42° W 18:30:37 10° NNW visible
12 Dec ? 05:47:10 10° ENE 05:48:19 11° E 05:49:27 10° ESE visible
12 Dec ? 17:57:49 10° SSE 18:01:25 85° WSW 18:05:03 10° NNW visible
